Location: Kelshall
(52.0000°N, 0.0500°W)
Time: 13:24:26
(UTC+00:00)

Cosmos 1428 Rocket - Pass Details

Date: 18 September 2020
Orbit: 947 x 989 km, 82.9° (Epoch: 25 October)

Event Time Altitude Azimuth Distance (km) Brightness Sun altitude
Rises 20:07:03 0° 350° (N) 3,708 8.1 -18.5°
Reaches altitude 10° 20:09:38 10° 354° (N) 2,752 7.3 -18.9°
Maximum altitude 20:15:54 64° 76° (ENE) 1,079 4.5 -19.7°
Enters shadow 20:18:53 32° 147° (SSE) 1,616 5.2 -20.1°
